Location: Fosso Corella
(43.9167°N, 11.5667°E)
Time: 13:12:44
(UTC+00:00)

Cosmos 2322 Rocket - Pass Details

Date: 07 June 2020
Orbit: 833 x 850 km, 71.0° (Epoch: 15 July)

Event Time Altitude Azimuth Distance (km) Brightness Sun altitude
Exits shadow 01:29:31 26° 206° (SSW) 1,590 3.0 -16.3°
Maximum altitude 01:32:49 86° 294° (WNW) 842 2.1 -16.0°
Drops below altitude 10° 01:38:27 10° 24° (NNE) 2,451 5.9 -15.4°
Sets 01:40:54 0° 25° (NNE) 3,389 7.1 -15.2°
